Weather History for Lake Charles, LA

Change the Weather History Date:

Thursday, November 7, 2013

  Actual Average Record
Temperature  
Mean Temperature 58 °F -  
Max Temperature 66 °F 72 °F 86 °F (2005)
Min Temperature 50 °F 55 °F 39 °F (2010)
Degree Days  
Heating Degree Days 7    
Growing Degree Days 8 (Base 50)    
Moisture  
Dew Point 45 °F    
Average Humidity 73    
Maximum Humidity 89    
Minimum Humidity 35    
Precipitation  
Precipitation 0.01 in - - ()
Sea Level Pressure  
Sea Level Pressure 30.29 in    
Wind  
Wind Speed 11 mph (North)    
Max Wind Speed 15 mph    
Max Gust Speed 23 mph    
Visibility 10 miles    
Events      
Averages and records for this station are not official NWS values.
T = Trace of Precipitation, MM = Missing Value Source: NWS Daily Summary

Daily Weather History Graph

Daily Weather History Graph

Search for Another Location

Airport:

Trip Planner

Search our weather history database for the weather conditions in past years. The results will help you decide how hot, cold, wet, or windy it might be!

Date:

Astronomy

Nov. 07, 2013 Rise Set
Actual Time 6:31 AM CST 5:20 PM CST
Civil Twilight 6:06 AM CST 5:45 PM CST
Nautical Twilight 5:38 AM CST 6:14 PM CST
Astronomical Twilight 5:09 AM CST 6:42 PM CST
Moon 10:37 AM CST (11/7) 9:35 PM CST (11/7)
Length of Visible Light 11h 38m
Length of Day
10h 48m
Waxing Crescent, 23% of the Moon is Illuminated
Nov 7
Waxing Crescent
Nov 9
First Quarter
Nov 17
Full
Nov 25
Last Quarter
Dec 2
New

Hourly Weather History & Observations

Time (CST) Temp. Dew Point Humidity Pressure Visibility Wind Dir Wind Speed Gust Speed Precip Events Conditions
12:15 AM 57.2 °F 53.2 °F 87% 30.21 in 10.0 mi NNW 12.7 mph - N/A   Overcast
12:35 AM 56.3 °F 52.2 °F 86% 30.20 in 10.0 mi NNW 15.0 mph 18.4 mph N/A   Overcast
12:55 AM 55.2 °F 50.9 °F 85% 30.21 in 10.0 mi NNW 11.5 mph 20.7 mph N/A   Overcast
1:15 AM 54.3 °F 49.8 °F 85% 30.21 in 10.0 mi North 10.4 mph 21.9 mph N/A   Mostly Cloudy
1:35 AM 53.6 °F 49.6 °F 86% 30.21 in 10.0 mi North 10.4 mph 17.3 mph N/A   Mostly Cloudy
1:55 AM 53.6 °F 49.3 °F 85% 30.21 in 10.0 mi North 10.4 mph 20.7 mph N/A   Overcast
2:15 AM 53.6 °F 49.5 °F 86% 30.21 in 10.0 mi North 12.7 mph 18.4 mph N/A   Overcast
2:35 AM 53.6 °F 50.0 °F 88% 30.21 in 10.0 mi North 11.5 mph 20.7 mph N/A   Overcast
2:55 AM 53.2 °F 49.3 °F 86% 30.22 in 10.0 mi North 15.0 mph 20.7 mph N/A   Overcast
3:15 AM 52.9 °F 48.4 °F 85% 30.22 in 10.0 mi North 13.8 mph 23.0 mph N/A   Overcast
3:35 AM 52.7 °F 47.8 °F 84% 30.23 in 10.0 mi North 13.8 mph 19.6 mph N/A   Overcast
3:55 AM 52.0 °F 47.3 °F 84% 30.23 in 10.0 mi North 13.8 mph 19.6 mph N/A   Mostly Cloudy
4:15 AM 51.3 °F 47.3 °F 86% 30.24 in 10.0 mi North 9.2 mph - N/A   Scattered Clouds
4:35 AM 50.9 °F 47.3 °F 87% 30.25 in 10.0 mi North 6.9 mph - N/A   Scattered Clouds
4:55 AM 50.9 °F 47.3 °F 87% 30.26 in 10.0 mi North 8.1 mph - N/A   Mostly Cloudy
5:15 AM 51.1 °F 47.5 °F 87% 30.26 in 10.0 mi North 8.1 mph - N/A   Overcast
5:35 AM 50.5 °F 47.3 °F 89% 30.27 in 10.0 mi North 8.1 mph - N/A   Mostly Cloudy
5:55 AM 51.1 °F 46.2 °F 83% 30.28 in 10.0 mi North 11.5 mph 18.4 mph N/A   Overcast
6:00 AM 51.8 °F 46.4 °F 82% 30.28 in 10.0 mi North 11.5 mph 16.1 mph N/A   Mostly Cloudy
6:50 AM 50.0 °F 44.6 °F 82% 30.31 in 10.0 mi North 11.5 mph 16.1 mph N/A   Mostly Cloudy
7:50 AM 50.0 °F 44.6 °F 82% 30.34 in 10.0 mi North 11.5 mph 23.0 mph N/A   Mostly Cloudy
8:50 AM 51.8 °F 42.8 °F 71% 30.35 in 10.0 mi NNE 12.7 mph 17.3 mph N/A   Partly Cloudy
9:50 AM 55.4 °F 42.8 °F 63% 30.36 in 10.0 mi North 13.8 mph 19.6 mph N/A   Clear
10:48 AM 57.2 °F 42.8 °F 59% 30.35 in 10.0 mi NNE 11.5 mph 17.3 mph N/A   Clear
11:50 AM 60.8 °F 42.8 °F 52% 30.33 in 10.0 mi North 12.7 mph 21.9 mph N/A   Clear
12:48 PM 64.4 °F 42.8 °F 45% 30.31 in 10.0 mi North 12.7 mph 20.7 mph N/A   Clear
1:52 PM 64.4 °F 37.4 °F 37% 30.29 in 10.0 mi North 12.7 mph 21.9 mph N/A   Clear
2:50 PM 66.2 °F 37.4 °F 35% 30.28 in 10.0 mi North 13.8 mph 17.3 mph N/A   Clear
3:50 PM 64.4 °F 37.4 °F 37% 30.29 in 10.0 mi North 10.4 mph 17.3 mph N/A   Clear
4:50 PM 60.8 °F 37.4 °F 42% 30.30 in 10.0 mi North 15.0 mph 20.7 mph N/A   Scattered Clouds
6:50 PM 55.4 °F 41.0 °F 58% 30.34 in 10.0 mi North - - N/A   Scattered Clouds
7:50 PM 53.6 °F 42.8 °F 67% 30.36 in 10.0 mi North - - N/A   Clear
8:50 PM 53.6 °F 42.8 °F 67% 30.36 in 10.0 mi North - - N/A   Clear
9:50 PM 51.8 °F 42.8 °F 71% 30.36 in 10.0 mi North - - N/A   Clear
9:55 PM 51.8 °F 43.0 °F 72% 30.36 in 10.0 mi North 4.6 mph - N/A   Clear
10:15 PM 51.1 °F 43.0 °F 74% 30.36 in 10.0 mi North 5.8 mph - N/A   Clear
10:35 PM 51.8 °F 42.3 °F 70% 30.36 in 10.0 mi North 5.8 mph - N/A   Clear
10:55 PM 51.6 °F 42.1 °F 70% 30.36 in 10.0 mi North 5.8 mph - N/A   Clear
11:15 PM 51.1 °F 41.9 °F 71% 30.36 in 10.0 mi North 5.8 mph - N/A   Clear
11:35 PM 51.1 °F 41.9 °F 71% 30.35 in 10.0 mi North 5.8 mph - N/A   Clear
11:55 PM 50.4 °F 42.1 °F 73% 30.34 in 10.0 mi North 5.8 mph - N/A   Clear